Location: Unspecified
(36.1222°N, 0.0000°E)
Time: 14:03:42
(UTC+00:00)

Envisat - Pass Details

Date: 29 May 2019
Orbit: 764 x 766 km, 98.1° (Epoch: 25 June)

Event Time Altitude Azimuth Distance (km) Brightness Sun altitude
Rises 19:52:22 0° 214° (SW) 3,219 6.2 -8.2°
Reaches altitude 10° 19:56:02 10° 242° (WSW) 2,299 5.9 -8.8°
Maximum altitude 19:58:16 13° 269° (W) 2,107 6.1 -9.2°
Drops below altitude 10° 20:00:31 10° 295° (WNW) 2,305 7.0 -9.6°
Sets 20:04:14 0° 323° (NW) 3,237 7.9 -10.2°
